• In Russia
  • List of Countries
  • For 7 days
  • Water Temperature
  • Satellite Maps
  • Weather Map
  • Weather Widgets
  • user-avatar
    Login

    Hourly Weather Sarafovo

    Today, 18 July, Wednesday

    Time Temperature Precipitation Wind Pressure Humidity
    00:00 +24°C° 0 mm 3 mps 751 mmHg 70%
    01:00 +22°C° 0 mm 4 mps 751 mmHg 72%
    02:00 +22°C° 0 mm 4 mps 750 mmHg 73%
    03:00 +21°C° 0.1 mm 4 mps 750 mmHg 75%
    04:00 +21°C° 0.1 mm 4 mps 750 mmHg 76%
    05:00 +20°C° 0.1 mm 4 mps 750 mmHg 78%
    06:00 +22°C° 0 mm 4 mps 750 mmHg 71%
    07:00 +25°C° 0 mm 5 mps 750 mmHg 64%
    08:00 +27°C° 0 mm 5 mps 751 mmHg 57%
    09:00 +28°C° 0 mm 5 mps 750 mmHg 52%
    10:00 +30°C° 0 mm 4 mps 750 mmHg 46%
    11:00 +32°C° 0 mm 4 mps 750 mmHg 40%
    12:00 +33°C° 0 mm 4 mps 750 mmHg 39%
    13:00 +33°C° 0 mm 4 mps 750 mmHg 38%
    14:00 +33°C° 0 mm 5 mps 750 mmHg 38%
    15:00 +32°C° 0 mm 5 mps 750 mmHg 40%
    16:00 +30°C° 0 mm 5 mps 750 mmHg 42%
    17:00 +29°C° 0 mm 5 mps 750 mmHg 45%
    18:00 +28°C° 0 mm 5 mps 750 mmHg 50%
    19:00 +26°C° 0 mm 5 mps 750 mmHg 56%
    20:00 +25°C° 0 mm 5 mps 750 mmHg 62%
    21:00 +23°C° 0 mm 5 mps 750 mmHg 65%
    22:00 +22°C° 0 mm 5 mps 750 mmHg 68%
    23:00 +22°C° 0 mm 6 mps 750 mmHg 71%

    Tomorrow, 19 July, Thursday

    Time Temperature Precipitation Wind Pressure Humidity
    00:00 +21°C° 0 mm 6 mps 750 mmHg 73%
    01:00 +21°C° 0 mm 6 mps 750 mmHg 75%
    02:00 +21°C° 0 mm 6 mps 750 mmHg 76%
    03:00 +20°C° 0 mm 6 mps 750 mmHg 77%
    04:00 +20°C° 0 mm 5 mps 750 mmHg 78%
    05:00 +20°C° 0 mm 5 mps 750 mmHg 79%
    06:00 +21°C° 0 mm 6 mps 750 mmHg 74%
    07:00 +22°C° 0 mm 6 mps 750 mmHg 68%
    08:00 +24°C° 0 mm 6 mps 750 mmHg 63%
    09:00 +26°C° 0 mm 6 mps 751 mmHg 62%
    10:00 +26°C° 0 mm 6 mps 751 mmHg 61%
    11:00 +27°C° 0 mm 6 mps 751 mmHg 61%
    12:00 +28°C° 0.2 mm 5 mps 751 mmHg 59%
    13:00 +28°C° 0.2 mm 5 mps 751 mmHg 58%
    14:00 +29°C° 0.2 mm 4 mps 751 mmHg 56%
    15:00 +29°C° 0.4 mm 4 mps 751 mmHg 59%
    16:00 +28°C° 0.4 mm 4 mps 751 mmHg 61%
    17:00 +28°C° 0.4 mm 3 mps 751 mmHg 63%
    18:00 +27°C° 0.4 mm 3 mps 751 mmHg 69%
    19:00 +25°C° 0.4 mm 3 mps 751 mmHg 75%
    20:00 +24°C° 0.4 mm 2 mps 751 mmHg 81%
    21:00 +22°C° 0.3 mm 3 mps 752 mmHg 83%
    22:00 +22°C° 0.3 mm 3 mps 752 mmHg 85%
    23:00 +21°C° 0.3 mm 4 mps 752 mmHg 88%

    Day after tomorrow, 20 July, Friday

    Time Temperature Precipitation Wind Pressure Humidity
    00:00 +21°C° 0.2 mm 4 mps 752 mmHg 88%
    01:00 +21°C° 0.2 mm 5 mps 752 mmHg 88%
    02:00 +20°C° 0.2 mm 5 mps 753 mmHg 88%
    03:00 +20°C° 0 mm 5 mps 753 mmHg 89%
    04:00 +20°C° 0 mm 5 mps 753 mmHg 90%
    05:00 +19°C° 0 mm 5 mps 753 mmHg 90%
    06:00 +21°C° 0 mm 5 mps 753 mmHg 84%
    07:00 +23°C° 0 mm 5 mps 753 mmHg 77%
    08:00 +26°C° 0 mm 5 mps 753 mmHg 70%
    09:00 +28°C° 0 mm 5 mps 753 mmHg 63%
    10:00 +29°C° 0 mm 4 mps 754 mmHg 56%
    11:00 +32°C° 0 mm 4 mps 754 mmHg 49%
    12:00 +33°C° 0.1 mm 3 mps 753 mmHg 48%
    13:00 +33°C° 0.1 mm 3 mps 753 mmHg 47%
    14:00 +34°C° 0.1 mm 3 mps 753 mmHg 46%
    15:00 +32°C° 0.2 mm 2 mps 753 mmHg 49%
    16:00 +32°C° 0.2 mm 2 mps 753 mmHg 53%
    17:00 +31°C° 0.2 mm 2 mps 753 mmHg 56%
    18:00 +29°C° 0.5 mm 2 mps 753 mmHg 62%
    19:00 +28°C° 0.5 mm 2 mps 753 mmHg 68%
    20:00 +26°C° 0.5 mm 1 mps 753 mmHg 74%
    21:00 +26°C° 0.1 mm 2 mps 754 mmHg 76%
    22:00 +25°C° 0.1 mm 2 mps 754 mmHg 78%
    23:00 +25°C° 0.1 mm 2 mps 754 mmHg 80%

    21 July, Saturday

    Time Temperature Precipitation Wind Pressure Humidity
    00:00 +24°C° 0.1 mm 2 mps 754 mmHg 80%
    01:00 +24°C° 0.1 mm 3 mps 754 mmHg 80%
    02:00 +22°C° 0.1 mm 3 mps 754 mmHg 81%
    03:00 +22°C° 0 mm 3 mps 754 mmHg 81%
    04:00 +21°C° 0 mm 3 mps 754 mmHg 81%
    05:00 +21°C° 0 mm 3 mps 754 mmHg 81%
    06:00 +23°C° 0 mm 4 mps 754 mmHg 73%
    07:00 +26°C° 0 mm 4 mps 754 mmHg 66%
    08:00 +28°C° 0 mm 4 mps 755 mmHg 58%
    09:00 +29°C° 0 mm 4 mps 755 mmHg 54%
    10:00 +31°C° 0 mm 3 mps 755 mmHg 49%
    11:00 +33°C° 0 mm 3 mps 755 mmHg 44%
    12:00 +34°C° 0 mm 3 mps 755 mmHg 42%
    13:00 +35°C° 0 mm 3 mps 754 mmHg 40%
    14:00 +35°C° 0 mm 3 mps 754 mmHg 39%
    15:00 +35°C° 0 mm 3 mps 754 mmHg 41%
    16:00 +34°C° 0 mm 3 mps 754 mmHg 43%
    17:00 +33°C° 0 mm 3 mps 754 mmHg 46%
    18:00 +31°C° 0 mm 2 mps 754 mmHg 53%
    19:00 +29°C° 0 mm 2 mps 754 mmHg 61%
    20:00 +27°C° 0 mm 2 mps 754 mmHg 68%
    21:00 +26°C° 0 mm 1 mps 754 mmHg 72%
    22:00 +25°C° 0 mm 1 mps 754 mmHg 76%
    23:00 +23°C° 0 mm 0 mps 754 mmHg 80%

    22 July, Sunday

    Time Temperature Precipitation Wind Pressure Humidity
    00:00 +24°C° 0 mm 1 mps 754 mmHg 81%
    01:00 +24°C° 0 mm 1 mps 754 mmHg 82%
    02:00 +24°C° 0 mm 1 mps 754 mmHg 83%
    03:00 +24°C° 0.1 mm 1 mps 754 mmHg 83%
    04:00 +23°C° 0.1 mm 1 mps 754 mmHg 83%
    05:00 +23°C° 0.1 mm 1 mps 754 mmHg 84%
    06:00 +25°C° 0.1 mm 1 mps 754 mmHg 75%
    07:00 +27°C° 0.1 mm 1 mps 754 mmHg 67%
    08:00 +30°C° 0.1 mm 1 mps 754 mmHg 58%
    09:00 +31°C° 0 mm 1 mps 754 mmHg 51%
    10:00 +33°C° 0 mm 1 mps 754 mmHg 44%
    11:00 +35°C° 0 mm 2 mps 754 mmHg 38%
    12:00 +36°C° 0 mm 2 mps 754 mmHg 36%
    13:00 +36°C° 0 mm 3 mps 753 mmHg 35%
    14:00 +36°C° 0 mm 3 mps 753 mmHg 34%
    15:00 +36°C° 0 mm 4 mps 753 mmHg 36%
    16:00 +35°C° 0 mm 4 mps 753 mmHg 38%
    17:00 +35°C° 0 mm 4 mps 752 mmHg 41%
    18:00 +33°C° 0 mm 4 mps 752 mmHg 51%
    19:00 +29°C° 0 mm 3 mps 752 mmHg 61%
    20:00 +27°C° 0 mm 3 mps 752 mmHg 72%
    21:00 +26°C° 0 mm 3 mps 752 mmHg 75%
    22:00 +25°C° 0 mm 3 mps 752 mmHg 79%
    23:00 +25°C° 0 mm 2 mps 752 mmHg 82%

    23 July, Monday

    Time Temperature Precipitation Wind Pressure Humidity
    00:00 +24°C° 0 mm 2 mps 752 mmHg 82%
    01:00 +24°C° 0 mm 2 mps 752 mmHg 82%
    02:00 +24°C° 0 mm 2 mps 752 mmHg 82%
    03:00 +24°C° 0 mm 2 mps 752 mmHg 82%
    04:00 +24°C° 0 mm 2 mps 751 mmHg 82%
    05:00 +23°C° 0 mm 2 mps 751 mmHg 82%
    06:00 +25°C° 0 mm 2 mps 751 mmHg 74%
    07:00 +28°C° 0 mm 3 mps 751 mmHg 66%
    08:00 +30°C° 0 mm 4 mps 751 mmHg 59%
    09:00 +32°C° 0 mm 4 mps 751 mmHg 52%
    10:00 +34°C° 0 mm 4 mps 751 mmHg 45%
    11:00 +36°C° 0 mm 4 mps 751 mmHg 38%
    12:00 +36°C° 0 mm 5 mps 750 mmHg 39%
    13:00 +36°C° 0 mm 5 mps 750 mmHg 40%
    14:00 +36°C° 0 mm 5 mps 750 mmHg 40%
    15:00 +34°C° 0.5 mm 5 mps 750 mmHg 48%
    16:00 +32°C° 0.5 mm 4 mps 750 mmHg 56%
    17:00 +29°C° 0.5 mm 4 mps 750 mmHg 64%
    18:00 +28°C° 0.4 mm 4 mps 750 mmHg 70%
    19:00 +26°C° 0.4 mm 4 mps 750 mmHg 77%
    20:00 +25°C° 0.4 mm 4 mps 750 mmHg 83%
    21:00 +25°C° 0.4 mm 4 mps 751 mmHg 85%
    22:00 +25°C° 0.4 mm 3 mps 751 mmHg 86%
    23:00 +25°C° 0.4 mm 3 mps 751 mmHg 88%
    Show more